User: anonymous
Location: Brno
(49.2000°N, 16.6330°E)
Time: 15:42:32
(UTC+02:00)
Language:

Cosmos 332 Rocket - Orbit

View from above orbital plane
View from above orbital plane
View from above satellite
View from above satellite

Ground track
Ground track

The orbit data is extracted from the following two-line orbital elements,

1 04370U 70028B   14260.15734009  .00000597  00000-0  13278-3 0  7367
2 04370 074.0415 203.5259 0015610 012.3030 107.9246 14.59174169865493
Epoch (UTC): 17 September 2014 03:46:34
Eccentricity: 0.0015610
inclination: 74.0415°
perigee height: 685 km
apogee height: 707 km
right ascension of ascending node: 203.5259°
argument of perigee: 12.3030°
revolutions per day: 14.59174169
mean anomaly at epoch: 107.9246°
orbit number at epoch: 86549

The dashed part of the orbit path shows where the satellite is in the earth's shadow,  

DLR